Precipitable_Water
0.67 0.58 0.50 0.61 0.74 0.82 0.87 0.83 0.82 0.91 1.00 0.91 0.88 0.92 0.93 1.02 1.02 1.00 1.00 1.05 0.96 0.90 0.96 1.05 1.13 1.20 1.23 1.28 1.31 1.31 1.31 1.41 1.56 1.51 1.41 1.44 1.54 1.70 1.86 2.05 2.06 2.07 2.13 2.13
0.51 0.42 0.61 0.70 0.77 0.76 0.75 0.74 0.79 0.92 0.98 0.89 0.83 0.83 1.00 1.06 0.97 0.97 0.91 0.96 1.05 0.99 0.99 0.97 1.05 1.13 1.17 1.23 1.31 1.31 1.34 1.39 1.49 1.54 1.55 1.54 1.55 1.63 1.78 1.91 2.06 2.23 2.26 2.18
0.38 0.44 0.69 0.68 0.68 0.64 0.66 0.66 0.74 0.75 0.83 0.91 0.82 0.74 0.87 0.98 0.99 1.01 0.93 0.93 0.98 0.99 0.98 1.03 0.98 1.01 1.14 1.21 1.29 1.30 1.36 1.42 1.48 1.54 1.54 1.52 1.59 1.61 1.61 1.73 1.83 2.07 2.30 2.17
0.32 0.50 0.62 0.60 0.58 0.61 0.56 0.75 0.79 0.77 0.76 0.60 0.83 0.52 0.65 0.80 0.78 0.90 0.91 0.86 0.91 0.98 1.04 1.07 1.10 1.05 1.07 1.15 1.30 1.31 1.34 1.40 1.43 1.51 1.47 1.38 1.27 1.27 1.44 1.53 1.78 2.01 2.19 2.13
0.25 0.32 0.51 0.48 0.51 0.60 0.55 0.69 0.65 0.78 0.75 0.70 0.74 0.64 0.65 0.78 0.75 0.88 0.80 0.90 0.91 0.99 1.05 1.09 1.14 1.09 1.09 1.18 1.24 1.30 1.32 1.38 1.41 1.42 1.46 1.44 1.34 1.39 1.52 1.57 1.61 1.83 2.03 2.11
0.26 0.35 0.41 0.48 0.46 0.48 0.51 0.56 0.66 0.72 0.72 0.55 0.64 0.65 0.54 0.61 0.66 0.79 0.82 0.84 0.94 1.01 1.07 1.12 1.21 1.21 1.12 1.19 1.22 1.25 1.27 1.33 1.41 1.37 1.43 1.41 1.34 1.33 1.47 1.62 1.67 1.71 1.86 2.01
0.18 0.20 0.30 0.43 0.37 0.38 0.40 0.42 0.38 0.45 0.49 0.43 0.61 0.60 0.55 0.63 0.70 0.76 0.72 0.75 0.84 1.05 1.12 1.11 1.12 1.15 1.17 1.13 1.19 1.19 1.27 1.32 1.47 1.35 1.40 1.41 1.39 1.38 1.37 1.57 1.70 1.74 1.78 1.86
0.13 0.10 0.16 0.32 0.35 0.31 0.32 0.35 0.34 0.31 0.34 0.35 0.58 0.42 0.46 0.59 0.64 0.80 0.89 0.77 0.80 0.90 1.05 1.11 1.13 1.16 1.20 1.15 1.15 1.25 1.29 1.35 1.47 1.39 1.34 1.42 1.42 1.43 1.39 1.55 1.72 1.71 1.77 1.76
0.14 0.10 0.14 0.22 0.33 0.28 0.28 0.34 0.40 0.37 0.37 0.35 0.44 0.46 0.50 0.51 0.54 0.69 0.80 0.73 0.66 0.72 0.87 1.04 1.13 1.18 1.23 1.26 1.13 1.21 1.39 1.39 1.44 1.44 1.41 1.45 1.46 1.45 1.41 1.46 1.59 1.65 1.62 1.75
0.22 0.11 0.12 0.18 0.26 0.28 0.24 0.29 0.26 0.30 0.25 0.22 0.29 0.37 0.32 0.39 0.56 0.64 0.65 0.62 0.64 0.75 0.84 0.97 1.02 1.15 1.23 1.30 1.16 1.22 1.40 1.42 1.43 1.50 1.49 1.50 1.50 1.51 1.51 1.48 1.45 1.54 1.68 1.85
0.28 0.18 0.13 0.14 0.19 0.23 0.24 0.25 0.28 0.26 0.22 0.16 0.17 0.24 0.37 0.37 0.47 0.55 0.67 0.70 0.72 0.74 0.77 0.83 0.93 1.13 1.17 1.32 1.29 1.22 1.35 1.42 1.45 1.50 1.56 1.56 1.53 1.53 1.61 1.51 1.49 1.61 1.73 1.80
0.29 0.24 0.16 0.16 0.21 0.27 0.28 0.25 0.24 0.20 0.19 0.20 0.17 0.18 0.31 0.37 0.51 0.56 0.63 0.71 0.76 0.77 0.76 0.87 0.93 1.05 1.12 1.22 1.29 1.21 1.32 1.37 1.44 1.49 1.57 1.58 1.58 1.59 1.62 1.59 1.52 1.65 1.65 1.75
0.37 0.26 0.20 0.19 0.21 0.24 0.25 0.26 0.24 0.22 0.23 0.19 0.15 0.14 0.28 0.36 0.54 0.54 0.59 0.71 0.84 0.85 0.80 0.88 0.93 0.97 1.08 1.17 1.23 1.18 1.28 1.32 1.44 1.45 1.53 1.58 1.54 1.59 1.64 1.58 1.53 1.62 1.63 1.67
0.52 0.36 0.30 0.20 0.20 0.23 0.24 0.24 0.24 0.22 0.20 0.21 0.20 0.16 0.17 0.31 0.37 0.48 0.52 0.61 0.73 0.73 0.74 0.87 0.84 0.94 1.04 1.11 1.22 1.16 1.21 1.32 1.42 1.42 1.46 1.47 1.47 1.56 1.60 1.52 1.54 1.62 1.62 1.62
0.52 0.41 0.39 0.31 0.26 0.26 0.26 0.26 0.27 0.25 0.22 0.21 0.23 0.19 0.15 0.21 0.27 0.39 0.47 0.51 0.59 0.64 0.78 0.86 0.82 0.89 0.94 1.06 1.19 1.16 1.18 1.28 1.40 1.40 1.37 1.38 1.46 1.53 1.55 1.52 1.56 1.56 1.63 1.55
0.59 0.46 0.43 0.35 0.28 0.27 0.27 0.28 0.30 0.30 0.34 0.31 0.26 0.21 0.20 0.20 0.27 0.31 0.47 0.47 0.48 0.54 0.61 0.79 0.78 0.84 0.90 1.04 1.12 1.09 1.11 1.26 1.39 1.40 1.39 1.44 1.47 1.42 1.42 1.49 1.58 1.58 1.58 1.66
0.55 0.49 0.42 0.34 0.40 0.31 0.26 0.28 0.29 0.31 0.37 0.34 0.27 0.24 0.20 0.17 0.23 0.29 0.42 0.48 0.48 0.51 0.57 0.80 0.71 0.79 0.93 1.03 1.13 1.02 1.10 1.27 1.33 1.38 1.40 1.38 1.42 1.28 1.31 1.44 1.61 1.63 1.57 1.67
0.52 0.53 0.49 0.39 0.41 0.23 0.28 0.34 0.36 0.36 0.41 0.40 0.29 0.26 0.22 0.19 0.31 0.40 0.45 0.49 0.48 0.53 0.60 0.65 0.67 0.79 0.99 1.13 1.14 1.10 1.15 1.20 1.28 1.34 1.35 1.35 1.24 1.21 1.31 1.40 1.46 1.60 1.75 1.76
0.56 0.54 0.46 0.42 0.39 0.40 0.35 0.39 0.39 0.39 0.39 0.44 0.35 0.30 0.29 0.30 0.41 0.45 0.53 0.56 0.51 0.61 0.61 0.63 0.72 0.80 1.03 1.14 1.17 1.12 1.15 1.19 1.22 1.28 1.29 1.32 1.35 1.28 1.22 1.25 1.37 1.57 1.68 1.82
0.57 0.68 0.52 0.48 0.39 0.32 0.39 0.48 0.55 0.53 0.36 0.52 0.39 0.31 0.29 0.33 0.26 0.39 0.59 0.67 0.68 0.74 0.71 0.69 0.77 0.89 1.00 1.13 1.19 1.11 1.09 1.13 1.13 1.23 1.33 1.40 1.42 1.42 1.36 1.31 1.35 1.48 1.58 1.64
0.38 0.48 0.51 0.53 0.47 0.49 0.61 0.63 0.66 0.38 0.41 0.60 0.50 0.40 0.34 0.27 0.33 0.48 0.67 0.70 0.76 0.77 0.80 0.87 0.88 0.87 0.92 1.23 1.13 1.11 1.06 1.07 1.08 1.19 1.34 1.42 1.47 1.47 1.46 1.46 1.48 1.48 1.52 1.57
0.24 0.28 0.48 0.55 0.51 0.44 0.81 0.67 0.55 0.70 0.83 0.73 0.57 0.58 0.49 0.45 0.50 0.61 0.67 0.72 0.78 0.79 0.83 0.89 0.86 0.82 0.95 1.20 1.18 1.05 1.08 1.06 1.21 1.30 1.31 1.35 1.48 1.55 1.55 1.50 1.51 1.58 1.58 1.55
0.30 0.39 0.38 0.60 0.58 0.86 0.93 0.84 0.96 1.03 0.93 0.91 0.81 0.80 0.73 0.67 0.67 0.72 0.76 0.81 0.82 0.86 0.91 0.95 0.88 0.79 0.88 1.14 1.25 1.06 1.10 1.36 1.40 1.34 1.26 1.29 1.41 1.52 1.62 1.59 1.55 1.54 1.59 1.54
0.48 0.67 0.50 0.55 0.80 0.80 0.93 0.95 1.04 1.11 1.08 1.01 1.02 0.96 0.90 0.79 0.84 0.87 0.90 0.85 0.78 0.77 0.72 0.78 0.89 0.87 0.91 1.08 1.23 1.17 1.30 1.36 1.38 1.36 1.42 1.51 1.55 1.60 1.60 1.63 1.70 1.69 1.64 1.56
0.49 0.61 0.60 0.59 0.78 0.90 0.96 0.99 1.07 1.06 1.14 1.07 1.01 0.98 0.83 0.83 0.81 0.97 0.92 0.88 0.89 0.83 0.79 0.84 0.85 0.90 1.01 1.15 1.27 1.33 1.37 1.43 1.38 1.43 1.47 1.53 1.62 1.63 1.68 1.76 1.73 1.77 1.86 1.80
0.62 0.60 0.55 0.53 0.75 0.86 0.96 1.06 1.16 1.03 1.13 1.17 1.07 1.11 1.10 0.99 0.91 1.09 1.12 1.12 1.02 0.95 0.83 0.87 1.01 1.11 1.08 1.21 1.38 1.50 1.58 1.52 1.49 1.47 1.55 1.61 1.65 1.71 1.77 1.70 1.70 1.89 1.96 1.98
Wind_Speed
13 10 11 11 10 5 5 3 2 3 5 7 8 7 4 7 9 11 11 11 10 10 11 13 15 15 13 12 12 11 12 12 11 9 9 11 10 10 9 9 9 10 9 8
14 15 15 11 10 7 6 4 4 4 6 5 8 9 6 5 7 10 12 13 14 12 10 12 14 15 15 13 12 12 12 12 12 11 10 9 10 10 9 9 10 12 11 9
19 14 16 14 11 9 8 6 6 5 3 3 3 5 7 6 6 9 11 12 13 15 12 11 12 14 14 14 13 12 12 12 12 12 11 9 9 10 10 10 10 10 8 8
19 20 19 14 13 9 9 8 8 5 3 3 1 4 4 5 9 11 14 13 14 15 15 14 12 13 14 15 13 12 12 12 11 12 11 9 9 9 10 10 10 9 9 8
20 16 17 17 16 12 11 9 10 7 6 4 3 4 9 9 12 15 17 17 17 16 16 16 14 13 14 14 13 12 13 12 12 12 12 10 9 8 8 8 9 10 10 10
22 20 19 19 15 16 9 7 7 7 8 7 7 5 8 7 7 7 11 17 19 18 18 17 17 14 14 13 12 12 13 12 12 13 13 12 10 9 7 7 7 7 10 10
17 23 23 22 18 14 11 9 8 8 8 12 8 6 13 9 9 11 8 13 17 19 18 18 17 16 14 14 13 12 12 12 11 12 12 12 11 10 8 8 8 7 6 8
16 17 24 22 21 18 15 14 11 11 10 11 9 10 10 11 15 13 14 13 16 18 20 20 19 18 15 15 15 13 12 11 11 11 12 12 11 11 10 9 8 7 7 7
12 16 18 23 20 16 15 15 13 8 10 8 13 14 15 13 12 8 14 15 15 16 18 20 20 19 17 16 16 15 13 12 11 10 11 12 12 11 11 10 9 8 7 7
12 11 16 22 21 21 18 16 12 12 11 14 14 15 13 11 8 6 11 16 16 14 16 18 20 20 19 17 17 16 14 12 12 11 10 12 12 12 11 11 11 10 9 9
15 10 11 16 20 22 17 17 13 13 13 12 14 17 15 15 14 12 12 16 17 17 15 17 18 20 20 18 18 18 15 14 13 12 11 11 13 13 11 12 11 10 10 9
17 13 15 19 16 17 18 19 18 19 19 16 15 19 17 14 14 13 15 18 18 18 17 16 17 18 19 20 18 19 17 15 13 13 11 11 12 14 13 11 11 10 9 6
11 15 18 19 15 14 16 16 14 13 12 15 12 16 16 15 13 14 16 15 18 18 15 16 16 18 19 20 18 18 17 16 14 14 12 11 13 13 13 12 11 11 11 11
12 12 16 21 22 15 14 13 13 14 13 13 15 15 16 19 16 13 15 15 20 16 16 16 15 17 18 19 18 18 17 16 14 14 13 12 14 14 13 12 11 11 12 14
10 12 14 19 20 20 19 15 14 13 17 16 20 15 19 21 21 19 18 16 18 16 17 16 15 16 18 18 18 17 18 16 15 14 13 13 15 14 13 13 12 12 13 14
14 15 14 16 17 20 19 18 16 15 12 17 14 18 17 21 17 18 22 22 20 19 18 20 16 16 18 18 18 18 17 17 16 14 12 12 14 14 14 13 12 12 13 13
17 15 14 16 14 18 18 19 17 15 13 12 14 17 12 19 20 21 21 21 22 21 18 20 18 17 18 18 19 19 17 17 16 15 12 12 13 14 14 13 12 12 13 13
22 18 17 19 15 18 19 17 17 16 16 15 15 14 11 17 14 16 18 18 17 17 19 19 17 17 17 19 20 20 19 18 17 15 13 12 12 14 14 14 13 12 11 12
26 20 19 18 18 19 17 14 14 15 17 15 15 14 16 15 14 15 15 18 15 16 17 15 16 15 15 20 22 22 20 19 18 16 14 14 14 13 14 14 13 13 11 11
22 22 21 19 19 17 19 15 15 15 17 15 14 14 15 15 17 18 17 17 17 18 17 16 15 15 17 20 24 23 22 21 20 18 17 15 15 14 13 13 13 13 13 13
23 25 20 20 21 19 16 17 15 15 17 16 15 16 15 16 17 19 17 16 16 17 18 18 16 17 18 23 26 24 23 23 22 20 19 17 16 15 14 14 13 13 13 13
23 22 30 19 20 21 9 12 12 16 14 14 13 13 12 13 15 16 16 16 15 16 16 18 18 18 20 25 28 27 25 23 21 20 20 19 18 17 15 15 15 14 14 14
19 23 26 32 21 19 16 16 13 14 13 10 12 13 13 14 14 14 14 14 13 14 15 16 18 19 20 29 29 29 27 25 23 21 21 21 20 20 18 18 17 16 16 16
19 21 23 27 30 22 20 15 15 14 14 14 11 14 16 16 15 15 15 14 14 15 16 17 19 21 23 28 31 30 28 26 24 23 21 21 21 20 21 21 21 21 20 20
22 19 23 25 29 26 25 18 18 18 18 17 16 15 17 16 16 16 15 15 15 15 16 17 17 20 24 27 29 29 28 28 25 24 23 23 22 22 22 22 23 25 25 25
23 19 20 24 25 29 28 24 24 21 22 20 20 19 17 18 18 17 16 16 15 15 14 15 14 16 22 26 25 28 27 27 26 24 22 23 23 23 24 24 24 25 26 27
Wind_Direction
221 216 217 212 203 204 200 203 224 262 280 274 250 240 211 202 204 208 206 207 201 200 201 200 205 209 212 215 216 217 213 215 216 220 221 225 228 229 229 231 229 224 223 225
226 225 221 214 215 216 214 208 247 243 284 270 245 244 214 204 216 213 214 211 213 209 200 202 204 209 211 213 214 215 213 215 220 221 223 227 228 228 230 235 233 229 221 224
220 219 213 215 225 221 225 218 234 248 274 282 285 233 216 230 224 217 217 217 211 213 207 202 204 207 209 208 211 213 215 218 220 221 221 229 228 232 237 238 241 246 223 223
224 222 221 215 222 211 234 220 215 212 260 237 226 243 266 249 247 230 219 218 216 213 211 210 206 205 206 208 211 216 217 217 221 216 217 221 228 229 239 243 240 237 234 232
220 212 213 216 217 217 239 220 226 227 229 268 261 263 269 276 272 241 227 223 222 214 210 209 206 205 204 204 208 214 214 216 221 217 219 223 229 236 241 237 232 235 234 229
224 224 218 220 224 226 243 244 255 248 237 257 242 246 279 265 253 238 221 222 220 213 209 210 210 208 206 203 207 211 211 215 219 217 219 223 227 229 229 224 224 233 231 230
234 229 228 225 229 234 229 228 254 255 242 240 235 245 251 277 262 235 233 226 215 212 208 207 206 205 203 202 202 203 206 211 215 216 218 222 225 224 224 220 220 220 219 217
226 238 217 219 221 224 227 222 227 225 237 250 236 242 251 266 268 255 237 225 218 213 210 208 206 205 204 203 202 202 203 210 212 216 219 221 222 225 225 221 214 219 219 225
225 241 224 217 219 215 231 231 234 230 258 245 246 258 274 277 272 256 225 215 212 207 206 207 206 205 205 206 206 206 207 214 218 220 221 222 225 225 225 223 223 227 228 226
237 243 225 220 219 227 224 227 232 241 239 250 257 256 256 272 260 257 215 211 209 204 203 206 207 209 208 209 209 209 212 216 220 225 227 226 224 224 225 225 226 229 232 236
229 229 234 210 218 224 227 230 239 237 242 246 251 252 235 253 250 241 227 212 208 207 204 203 208 211 209 210 212 213 216 220 226 229 232 231 224 222 223 222 227 232 230 238
229 226 228 224 230 228 223 235 239 240 246 253 252 250 241 256 245 235 228 217 215 209 206 208 209 209 208 210 213 213 218 223 228 227 231 231 223 219 220 222 225 226 223 227
241 240 242 249 237 229 224 237 236 228 239 239 239 252 239 245 239 241 232 224 214 207 212 210 208 209 210 209 210 212 217 224 226 224 227 228 216 213 217 218 222 219 210 193
243 241 233 233 229 220 224 223 227 225 235 239 246 251 241 234 234 233 226 221 208 209 203 204 207 211 210 207 208 211 217 223 223 221 222 223 212 212 214 215 216 212 207 202
251 242 252 247 233 224 233 228 223 231 242 237 249 240 240 233 234 228 225 217 210 210 209 209 213 213 206 205 208 211 215 218 217 216 217 217 212 213 214 212 212 209 205 204
264 253 262 245 228 231 229 226 226 239 254 250 241 249 242 231 230 224 225 222 223 222 224 216 213 209 206 208 208 206 209 211 210 210 213 211 209 210 209 209 208 207 207 209
250 254 258 242 240 238 236 231 232 241 242 244 236 238 243 226 228 230 224 221 225 229 225 211 215 212 211 214 205 204 205 205 205 206 206 203 204 204 203 202 203 203 205 208
240 244 243 243 247 230 234 236 234 240 249 249 247 245 234 221 227 209 216 219 222 219 206 212 217 216 216 209 206 203 202 201 201 202 201 197 195 197 198 199 202 205 207 209
231 232 235 235 233 243 232 231 233 241 249 246 246 241 232 220 214 218 219 209 215 207 205 210 209 219 218 209 206 202 202 202 200 200 199 199 199 194 196 199 204 209 208 207
223 219 229 227 230 237 231 236 241 232 248 244 240 228 216 221 216 221 216 212 214 213 214 219 221 224 219 210 204 202 203 203 203 202 203 201 201 201 199 203 207 211 215 217
231 227 226 228 229 240 241 247 243 225 242 246 240 230 220 219 216 209 211 210 214 220 223 226 227 227 224 209 203 204 204 206 208 207 206 206 208 208 211 212 214 217 221 225
228 225 221 228 225 226 251 235 228 241 247 239 222 223 220 208 199 201 205 214 223 225 225 228 230 231 222 210 205 205 205 205 206 208 210 211 214 217 219 221 224 227 228 231
229 227 227 217 223 226 241 234 241 236 230 230 208 207 202 197 201 203 206 213 220 224 233 240 237 231 225 210 207 207 211 211 212 213 214 217 221 225 229 230 231 233 235 237
236 230 231 228 225 241 233 236 239 231 230 229 217 210 203 202 204 210 216 226 236 244 249 248 241 233 222 210 209 210 210 211 214 216 219 222 227 232 236 239 240 240 240 240
233 236 232 232 228 236 225 241 238 232 231 230 223 219 209 206 210 216 226 235 247 252 255 247 239 227 216 208 210 210 211 213 217 221 226 230 235 239 243 246 248 246 246 245
228 228 229 229 232 227 233 241 236 232 232 233 228 224 225 224 221 223 234 243 249 256 260 233 232 219 209 207 209 209 210 212 216 223 230 236 242 244 248 251 252 251 250 248